Regional Weather Roundup
Issued by NWS

Home | Current Version | Previous Version | Graphics & Text | Print | Product List | Glossary On
Versions: 1 2 3 4 5 6 7 8 9 10 11 12 13 14 15 16 17 18 19 20 21 22 23 24 25 26 27 28 29 30 31 32 33 34 35 36 37 38 39 40 41 42 43 44 45 46 47 48 49 50
000
ASUS43 KDTX 302301
RWRMI
MICHIGAN HOURLY REGIONAL WEATHER ROUNDUP
NATIONAL WEATHER SERVICE DETROIT/PONTIAC MI
700 PM EDT TUE SEP 30 2014

NOTE: "FAIR" INDICATES FEW OR NO CLOUDS BELOW 12,000 FEET WITH NO
SIGNIFICANT WEATHER AND/OR OBSTRUCTION TO VISIBILITY.

MIZ047>049-052>055-059>063-066>070-074>076-081>083-010000-
SOUTHEAST LOWER MICHIGAN

CITY           SKY/WX    TMP DP  RH WIND       PRES   REMARKS
ADRIAN         CLOUDY    56  49  77 NE8       29.99R
ALMA           CLOUDY    54  48  81 CALM      30.03R
ANN ARBOR      CLOUDY    55  46  71 N9        30.00R
BAD AXE        CLOUDY    52  52 100 N12       30.00R FOG
CARO           CLOUDY    51  50  95 N8        30.02R FOG
DETROIT CITY   CLOUDY    57  50  77 N7        29.99S
DETROIT        CLOUDY    55  48  77 N8        30.00R
FLINT          CLOUDY    53  48  83 N9        30.02R
GROSSE ILE     CLOUDY    55  52  88 N8        29.99R
HILLSDALE      CLOUDY    56  50  80 N5        29.99R
HOWELL         CLOUDY    51  47  86 N3        30.02R

CITY           SKY/WX    TMP DP  RH WIND       PRES   REMARKS
JACKSON        CLOUDY    54  48  80 CALM      30.00R
LAMBERTVILLE   CLOUDY    57  50  77 N3        29.98S
LANSING        CLOUDY    54  47  77 NE9       30.01S
LAPEER         CLOUDY    51  49  95 N6        30.01S FOG
MASON          CLOUDY    53  47  81 NE6       30.00S
MONROE         CLOUDY    55  52  88 N9        29.97S
MT. CLEMENS    CLOUDY    52  52 100 NW8       29.97R
PONTIAC        MOCLDY    52  47  83 N6        30.00R
PORT HOPE        N/A     55  54  96 N8G21     29.99R
PORT HURON     CLOUDY    52  52 100 W3        29.99S FOG
TRI CITIES     CLOUDY    54  48  80 N7        30.04R
TROY           CLOUDY    55  48  77 N8        30.02R
SAGINAW HB     CLOUDY    52  52 100 N5        30.02S
$$
MIZ043>046-050>051-056>058-064>065-071>073-077>080-010000-
SOUTHWEST LOWER MICHIGAN

CITY           SKY/WX    TMP DP  RH WIND       PRES   REMARKS
BATTLE CREEK   CLOUDY    56  47  71 N6        30.00S
BIG RAPIDS     CLOUDY    53  50  92 CALM      30.02R
COLDWATER      CLOUDY    57  50  77 N3        29.99R
FREMONT        CLOUDY    53  46  78 NE6       30.02R
HOLLAND        CLOUDY    57  48  72 NE5       30.01
GRAND RAPIDS   CLOUDY    56  49  77 N7        30.01R
IONIA          CLOUDY    55  47  74 NE8       30.01R
KALAMAZOO      CLOUDY    55  47  74 N7        30.01R
LUDINGTON      CLOUDY    51  47  89 NE3       30.04S
MARSHALL       CLOUDY    55  48  79 CALM      29.99S
MOUNT PLEASANT CLOUDY    54  48  78 NE3       30.02R
MUSKEGON       CLOUDY    55  46  71 E3        30.02S
SOUTH HAVEN    CLOUDY    55  49  80 CALM      30.01S
$$
MIZ016>042-010000-
NORTHERN LOWER MICHIGAN

CITY           SKY/WX    TMP DP  RH WIND       PRES   REMARKS
ALPENA         CLOUDY    51  47  86 N6        30.05R
BEAVER ISLAND  CLOUDY    53  48  83 CALM      30.06S
BELLAIRE       CLOUDY    52  47  85 NE3       30.05S
CADILLAC       CLOUDY    50  47  90 N5        30.03R
CHARLEVOIX     CLOUDY    52  49  88 E7        30.08S
FRANKFORT      CLOUDY    53  47  80 CALM      30.04S
GAYLORD        CLOUDY    47  45  93 NE7       30.05R
GRAYLING       CLOUDY    50  47  88 NE7       30.05R
HARBOR SPRINGS CLOUDY    51  46  82 NE5       30.06S
HOUGHTON LAKE  CLOUDY    50  46  86 NE6       30.04R
OSCODA         CLOUDY    50  49  96 N9        30.03R
PELLSTON       CLOUDY    52  46  80 NE5       30.07R
ROGERS CITY    CLOUDY    52  48  87 N5        30.06R
TRAVERSE CITY  CLOUDY    53  47  79 N6        30.03S
$$
MIZ007>008-015-010000-
EASTERN UPPER MICHIGAN

CITY           SKY/WX    TMP DP  RH WIND       PRES   REMARKS
MACKINAC ISLAN CLOUDY    51  48  87 CALM      30.06S
NEWBERRY       CLOUDY    52  46  79 N10       30.06S
S. S. MARIE    CLOUDY    54  47  77 NW3       30.06R
$$
MIZ004>006-011>014-085-010000-
CENTRAL UPPER MICHIGAN

CITY           SKY/WX    TMP DP  RH WIND       PRES   REMARKS
MANISTIQUE     CLOUDY    53  48  84 CALM      30.05S
SAWYER-GWINN   CLOUDY    43  39  87 NE6       30.07S
$$
MIZ001>003-009>011-084-010000-
WESTERN UPPER MICHIGAN

CITY           SKY/WX    TMP DP  RH WIND       PRES   REMARKS
IRON MOUNTAIN  CLEAR     55  43  63 E6        30.02S
HOUGHTON       CLEAR     45  38  76 E10       30.05F
COPPER HARBOR    N/A     47  39  74 SE5       30.08S
$$

ABBREVIATIONS USED IN REMARKS
   TC - TEMPERATURE IN CELSIUS
  WCI - WIND CHILL INDEX
   HX - HEAT INDEX
  VSB - VISIBILITY



USA.gov is the U.S. government's official web portal to all federal, state and local government web resources and services.